PLATFORM,ARGOS_ID,DATE (YYYY/MM/DD HH:MI:SS),LATITUDE (degree_north),LONGITUDE (degree_east),DEPH LEVEL1(meter),TEMP LEVEL1(degree_Celsius),DEPH LEVEL2(meter),NSCT LEVEL2(meter/second),EWCT LEVEL2(meter/second),QC,SVP_RCBN_Number,SVP_GNRL_ImmPercent,SVP_GNRL_BattVolt
61796,80035,2011/05/17 17:30:00,42.8610,9.5460,0.5,-5,50,,,0011174799,4,0,0
61796,80035,2011/05/17 18:00:00,42.8610,9.5460,0.5,-5,50,0,0,0011174700,1,0,0
61796,80035,2011/05/17 18:02:39,42.7107,9.4671,0.5,22.52,50,,,0014474799,4,0,12.3
61796,80035,2011/05/17 18:30:11,42.7557,9.4898,0.5,20.76,50,3.02892,1.12229,0014474700,1,28,12.3
61796,80035,2011/05/17 18:32:39,42.7557,9.4898,0.5,20.76,50,0,0,0014474700,4,28,12.3
61796,80035,2011/05/17 19:00:11,42.8302,9.5304,0.5,18.76,50,5.01454,2.00533,0014471700,4,100,12.5
61796,80035,2011/05/17 19:30:12,42.8618,9.5457,0.5,18.92,50,1.951,0.692589,0014471700,4,85,12.5
61796,80035,2011/05/17 20:00:11,42.8613,9.5453,0.5,18.92,50,-0.030905,-0.018122,0011171700,4,9,12.5
61796,80035,2011/05/17 20:30:11,42.8613,9.5453,0.5,18.92,50,0,0,0011171700,1,9,12.5
61796,80035,2011/05/17 21:00:11,42.8592,9.5468,0.5,18.92,50,-0.129727,0.067923,0011171700,4,9,12.5
61796,80035,2011/05/17 21:30:11,42.8576,9.5492,0.5,18.84,50,-0.09884,0.10868,0011171700,4,9,12.5
61796,80035,2011/05/17 22:00:11,42.8561,9.5517,0.5,18.76,50,-0.092662,0.113211,0011171700,1,7,12.5
61796,80035,2011/05/17 22:30:11,42.8561,9.5517,0.5,18.76,50,0,0,0011171700,1,7,12.5
61796,80035,2011/05/17 22:30:58,42.8551,9.5538,0.5,18.68,50,-2.36585,3.6421,0014471700,1,7,12.5
61796,80035,2011/05/17 23:00:11,42.8543,9.5556,0.5,18.6,50,-0.050745,0.0837,0011171700,1,9,12.5
61796,80035,2011/05/17 23:30:12,42.8521,9.5563,0.5,18.68,50,-0.135829,0.031683,0011171700,3,9,12.5
61796,80035,2011/05/18 00:00:11,42.8497,9.5568,0.5,18.76,50,-0.148342,0.022657,0011171700,3,12,12.5
61796,80035,2011/05/18 00:30:35,42.8472,9.5579,0.5,18.76,50,-0.152405,0.049164,0011171700,1,14,12.5
61796,80035,2011/05/18 01:00:12,42.8448,9.5593,0.5,18.76,50,-0.150179,0.06423,0011171700,1,17,12.5
61796,80035,2011/05/18 01:30:18,42.8424,9.5607,0.5,18.76,50,-0.147767,0.063201,0011171700,4,17,12.5
61796,80035,2011/05/18 02:00:12,42.8400,9.5620,0.5,18.68,50,-0.148756,0.059082,0011171700,4,17,12.5
61796,80035,2011/05/18 02:30:13,42.8375,9.5637,0.5,18.76,50,-0.154352,0.076963,0011171700,6,17,12.5
61796,80035,2011/05/18 03:00:11,42.8347,9.5657,0.5,18.76,50,-0.173162,0.0907,0011171700,6,19,12.5
61796,80035,2011/05/18 03:30:13,42.8319,9.5677,0.5,18.68,50,-0.172778,0.090503,0011171700,3,19,12.5
61796,80035,2011/05/18 04:00:11,42.8290,9.5700,0.5,18.68,50,-0.179347,0.104315,0011171700,1,15,12.5
61796,80035,2011/05/18 04:30:35,42.8261,9.5723,0.5,18.6,50,-0.17679,0.102833,0011171700,1,17,12.5
61796,80035,2011/05/18 05:00:11,42.8231,9.5748,0.5,18.52,50,-0.187829,0.114801,0011171700,1,17,12.5
61796,80035,2011/05/18 05:30:12,42.8202,9.5777,0.5,18.44,50,-0.179048,0.131327,0011171700,1,17,12.5
61796,80035,2011/05/18 06:00:12,42.8202,9.5777,0.5,18.52,50,0,0,0011171700,1,17,12.5
61796,80035,2011/05/18 06:30:11,42.8172,9.5808,0.5,18.68,50,-0.185428,0.140547,0011171700,1,15,12.5
61796,80035,2011/05/18 07:00:11,42.8114,9.5880,0.5,18.68,50,-0.358295,0.326273,0011171700,4,15,12.5
61796,80035,2011/05/18 07:30:12,42.8082,9.5917,0.5,18.68,50,-0.19757,0.167587,0011171700,4,15,12.5
61796,80035,2011/05/18 08:00:11,42.8050,9.5953,0.5,18.76,50,-0.19779,0.163247,0011171700,4,15,12.5
61796,80035,2011/05/18 08:30:35,42.8017,9.5987,0.5,18.76,50,-0.201175,0.152073,0011171700,4,15,12.5
61796,80035,2011/05/18 09:00:12,42.7991,9.6021,0.5,18.92,50,-0.162694,0.156102,0011171700,3,14,12.5
61796,80035,2011/05/18 09:30:11,42.7969,9.6055,0.5,19.24,50,-0.13598,0.154199,0011171700,3,14,12.5
61796,80035,2011/05/18 10:00:13,42.7947,9.6092,0.5,19.8,50,-0.135754,0.167532,0011171700,3,12,12.5
61796,80035,2011/05/18 10:30:13,42.7927,9.6131,0.5,19.88,50,-0.12355,0.17679,0011171700,3,14,12.5
61796,80035,2011/05/18 11:00:11,42.7907,9.6169,0.5,19.48,50,-0.123687,0.172454,0011171700,3,15,12.4
61796,80035,2011/05/18 11:30:11,42.7891,9.6210,0.5,19.72,50,-0.09884,0.185867,0011171700,1,15,12.4
61796,80035,2011/05/18 12:00:11,42.7891,9.6210,0.5,19.72,50,0,0,0011171700,1,15,12.4
61796,80035,2011/05/18 12:30:35,42.7875,9.6253,0.5,19.64,50,-0.097539,0.192374,0011171700,3,17,12.5
61796,80035,2011/05/18 13:00:08,42.7860,9.6297,0.5,19.72,50,-0.094074,0.202515,0011171700,3,15,12.5
61796,80035,2011/05/18 13:30:11,42.7827,9.6387,0.5,19.8,50,-0.203518,0.407359,0011171700,3,14,12.5
61796,80035,2011/05/18 14:00:11,42.7810,9.6433,0.5,19.88,50,-0.105017,0.208561,0011171700,5,17,12.5
61796,80035,2011/05/18 14:30:11,42.7789,9.6480,0.5,19.96,50,-0.129727,0.213102,0011171700,5,17,12.5
61796,80035,2011/05/18 15:00:11,42.7768,9.6527,0.5,20.36,50,-0.129727,0.213109,0011171700,1,15,12.5
61796,80035,2011/05/18 15:01:15,42.7768,9.6527,0.5,20.36,50,0,0,0011171700,4,15,12.5
61796,80035,2011/05/18 15:30:11,42.7748,9.6569,0.5,20.6,50,-0.128105,0.197465,0011171700,4,15,12.5
61796,80035,2011/05/18 16:00:11,42.7726,9.6607,0.5,20.6,50,-0.135905,0.172312,0011171700,4,14,12.5
61796,80035,2011/05/18 16:30:35,42.7704,9.6648,0.5,20.44,50,-0.134117,0.183476,0011171700,4,14,12.5
61796,80035,2011/05/18 17:00:17,42.7684,9.6681,0.5,20.28,50,-0.124798,0.151162,0011171700,3,12,12.5
61796,80035,2011/05/18 17:30:11,42.7664,9.6713,0.5,20.12,50,-0.123963,0.145605,0011171700,3,14,12.5
61796,80035,2011/05/18 18:00:11,42.7645,9.6746,0.5,19.96,50,-0.117372,0.14966,0011171700,1,14,12.5
61796,80035,2011/05/18 18:30:12,42.7626,9.6775,0.5,20.04,50,-0.117307,0.13145,0011171700,1,14,12.5
61796,80035,2011/05/18 19:00:11,42.7607,9.6801,0.5,20.04,50,-0.117438,0.117987,0011171700,1,15,12.5
61796,80035,2011/05/18 19:30:18,42.7592,9.6824,0.5,19.96,50,-0.092303,0.103913,0011171700,3,15,12.5
61796,80035,2011/05/18 20:00:13,42.7578,9.6841,0.5,19.88,50,-0.086726,0.077321,0011171700,3,15,12.5
61796,80035,2011/05/18 20:30:12,42.7566,9.6855,0.5,19.8,50,-0.074171,0.063536,0011171700,1,15,12.5
61796,80035,2011/05/18 21:00:12,42.7566,9.6855,0.5,19.8,50,0,0,0011171700,1,15,12.5
61796,80035,2011/05/18 21:00:58,42.7555,9.6878,0.5,19.72,50,-2.65901,4.08225,0014471700,1,15,12.5
61796,80035,2011/05/18 21:30:11,42.7546,9.6897,0.5,19.64,50,-0.057088,0.088493,0011171700,1,15,12.5
61796,80035,2011/05/18 21:30:58,42.7555,9.6878,0.5,19.72,50,2.12926,-3.30059,0014471700,1,15,12.5
61796,80035,2011/05/18 22:00:11,42.7540,9.6914,0.5,19.64,50,-0.095147,0.167671,0011171700,3,14,12.5
61796,80035,2011/05/18 22:30:12,42.7537,9.6937,0.5,19.24,50,-0.018522,0.10427,0011171700,3,14,12.5
61796,80035,2011/05/18 23:00:11,42.7533,9.6960,0.5,19.4,50,-0.024724,0.104386,0011171700,1,12,12.5
61796,80035,2011/05/18 23:30:35,42.7529,9.6980,0.5,19.56,50,-0.024385,0.089527,0011171700,1,12,12.5
61796,80035,2011/05/19 00:00:11,42.7527,9.6999,0.5,19.48,50,-0.012522,0.08735,0011171700,1,15,12.5
61796,80035,2011/05/19 00:30:10,42.7524,9.7021,0.5,19.56,50,-0.018543,0.099849,0011171700,1,15,12.5
61796,80035,2011/05/19 01:00:11,42.7522,9.7045,0.5,19.4,50,-0.012348,0.108806,0011171700,3,14,12.5
61796,80035,2011/05/19 01:30:16,42.7518,9.7071,0.5,19.24,50,-0.024642,0.117613,0011171700,3,14,12.5
61796,80035,2011/05/19 02:00:11,42.7515,9.7096,0.5,19.32,50,-0.018584,0.11372,0011171700,3,14,12.5
61796,80035,2011/05/19 02:30:17,42.7512,9.7124,0.5,19.24,50,-0.018471,0.126591,0011171700,3,14,12.5
61796,80035,2011/05/19 03:00:11,42.7510,9.7150,0.5,19.24,50,-0.012396,0.118335,0011171700,1,14,12.5
61796,80035,2011/05/19 03:30:11,42.7506,9.7177,0.5,19.24,50,-0.02471,0.122478,0011171700,4,14,12.5
61796,80035,2011/05/19 04:00:11,42.7506,9.7177,0.5,19.24,50,0,0,0011171700,1,14,12.5
61796,80035,2011/05/19 04:01:04,42.7502,9.7206,0.5,19.16,50,-0.839207,4.46777,0014471700,4,12,12.5
61796,80035,2011/05/19 04:30:11,42.7496,9.7236,0.5,19.16,50,-0.038189,0.140217,0011171700,4,12,12.5
61796,80035,2011/05/19 04:31:04,42.7502,9.7206,0.5,19.16,50,1.25881,-4.62187,0014471700,1,12,12.5
61796,80035,2011/05/19 05:00:12,42.7487,9.7271,0.5,19.16,50,-0.095419,0.303632,0011171700,4,12,12.5
61796,80035,2011/05/19 05:30:11,42.7487,9.7271,0.5,19.16,50,0,0,0011171700,4,12,12.5
61796,80035,2011/05/19 06:00:17,42.7476,9.7302,0.5,19.08,50,-0.067727,0.140161,0011171700,4,12,12.5
61796,80035,2011/05/19 06:30:11,42.7453,9.7358,0.5,19.08,50,-0.142558,0.254896,0011171700,1,14,12.5
61796,80035,2011/05/19 07:00:11,42.7441,9.7384,0.5,19.16,50,-0.07413,0.117953,0011171700,3,15,12.5
61796,80035,2011/05/19 07:30:12,42.7431,9.7408,0.5,19.24,50,-0.061741,0.108821,0011171700,3,15,12.5
61796,80035,2011/05/19 08:00:12,42.7421,9.7429,0.5,19.24,50,-0.061775,0.095273,0011171700,7,15,12.5
61796,80035,2011/05/19 08:30:33,42.7411,9.7447,0.5,19.16,50,-0.061063,0.080722,0011171700,7,15,12.5
61796,80035,2011/05/19 09:00:11,42.7404,9.7462,0.5,19.16,50,-0.043778,0.068896,0011171700,5,14,12.5
61796,80035,2011/05/19 09:30:10,42.7399,9.7476,0.5,19.24,50,-0.030905,0.063553,0011171700,5,15,12.5
61796,80035,2011/05/19 10:00:11,42.7393,9.7487,0.5,19.16,50,-0.037044,0.04988,0011171700,1,20,12.5
61796,80035,2011/05/19 10:30:11,42.7393,9.7487,0.5,19.16,50,0,0,0011171700,3,20,12.5
61796,80035,2011/05/19 11:00:11,42.7392,9.7497,0.5,19.24,50,-0.006177,0.045371,0011171700,3,20,12.5
61796,80035,2011/05/19 11:30:14,42.7401,9.7504,0.5,19.24,50,0.055505,0.031706,0011171700,1,22,12.5
61796,80035,2011/05/19 12:00:36,42.7407,9.7507,0.5,19.24,50,0.036617,0.013447,0011171700,1,22,12.5
61796,80035,2011/05/19 12:30:10,42.7418,9.7509,0.5,19.16,50,0.068948,0.009207,0011171700,1,22,12.5
61796,80035,2011/05/19 13:00:34,42.7428,9.7519,0.5,19.16,50,0.060962,0.044771,0011171700,4,20,12.5
61796,80035,2011/05/19 13:30:12,42.7442,9.7529,0.5,19.24,50,0.087555,0.045929,0011171700,4,22,12.5
61796,80035,2011/05/19 14:00:11,42.7455,9.7542,0.5,19.24,50,0.080352,0.059009,0011171700,4,23,12.5
61796,80035,2011/05/19 14:30:12,42.7468,9.7555,0.5,19.16,50,0.080263,0.058942,0011171700,4,23,12.5
61796,80035,2011/05/19 15:00:12,42.7468,9.7555,0.5,19.16,50,0,0,0011171700,1,23,12.5
61796,80035,2011/05/19 15:30:11,42.7483,9.7572,0.5,19.16,50,0.092714,0.077163,0011171700,1,23,12.5
61796,80035,2011/05/19 16:00:19,42.7506,9.7618,0.5,19,50,0.141454,0.207747,0011171700,1,25,12.5
61796,80035,2011/05/19 16:30:34,42.7518,9.7646,0.5,19,50,0.073517,0.125964,0011171700,1,25,12.5
61796,80035,2011/05/19 17:00:14,42.7530,9.7675,0.5,19,50,0.074963,0.133025,0011171700,1,25,12.5
61796,80035,2011/05/19 17:30:35,42.7539,9.7710,0.5,19,50,0.054956,0.15693,0011171700,1,25,12.5
61796,80035,2011/05/19 18:00:11,42.7547,9.7745,0.5,18.92,50,0.050088,0.160904,0011171700,1,28,12.3
61796,80035,2011/05/19 18:30:11,42.7551,9.7778,0.5,18.92,50,0.02471,0.149685,0011171700,3,28,12.3
61796,80035,2011/05/19 19:00:14,42.7555,9.7809,0.5,18.92,50,0.024669,0.140379,0011171700,3,25,12.5
61796,80035,2011/05/19 19:31:05,42.7559,9.7842,0.5,18.84,50,0.024029,0.145559,0011171700,3,25,12.5
61796,80035,2011/05/19 20:00:12,42.7564,9.7874,0.5,18.84,50,0.031825,0.14955,0011171700,1,22,12.5
61796,80035,2011/05/19 20:30:12,42.7566,9.7908,0.5,18.84,50,0.012355,0.154217,0011171700,1,22,12.5
61796,80035,2011/05/19 21:00:12,42.7567,9.7940,0.5,18.84,50,0.006177,0.145145,0011171700,1,22,12.5
61796,80035,2011/05/19 22:00:35,42.7567,9.7995,0.5,18.76,50,0,0.123942,0011171700,1,20,12.5
61796,80035,2011/05/19 22:30:12,42.7565,9.8020,0.5,18.76,50,-0.012515,0.114862,0011171700,1,20,12.5
61796,80035,2011/05/19 23:00:12,42.7566,9.8043,0.5,18.76,50,0.006177,0.104323,0011171700,3,20,12.5
61796,80035,2011/05/19 23:30:36,42.7570,9.8062,0.5,18.76,50,0.024385,0.085046,0011171700,3,20,12.5
61796,80035,2011/05/20 00:00:18,42.7570,9.8062,0.5,18.76,50,0,0,0011171700,4,20,12.5
61796,80035,2011/05/20 00:30:13,42.7582,9.8092,0.5,18.68,50,0.074336,0.136451,0011171700,4,20,12.5
61796,80035,2011/05/20 01:00:12,42.7587,9.8108,0.5,18.68,50,0.030905,0.072611,0011171700,4,19,12.5
61796,80035,2011/05/20 01:30:19,42.7594,9.8125,0.5,18.6,50,0.043075,0.076807,0011171700,3,19,12.5
61796,80035,2011/05/20 02:00:19,42.7600,9.8141,0.5,18.6,50,0.037065,0.072569,0011171700,3,20,12.5
61796,80035,2011/05/20 02:30:13,42.7600,9.8141,0.5,18.6,50,0,0,0011171700,1,20,12.5
61796,80035,2011/05/20 02:31:06,42.7608,9.8158,0.5,18.6,50,1.67841,2.61862,0014471700,1,20,12.5
61796,80035,2011/05/20 03:00:11,42.7613,9.8180,0.5,18.6,50,0.031861,0.102925,0011171700,1,22,12.5
61796,80035,2011/05/20 03:01:06,42.7608,9.8158,0.5,18.6,50,-1.01086,-3.26553,0014471700,1,20,12.5
61796,80035,2011/05/20 03:30:12,42.7617,9.8198,0.5,18.6,50,0.057317,0.187029,0011171700,5,22,12.5
61796,80035,2011/05/20 04:00:17,42.7619,9.8219,0.5,18.6,50,0.012321,0.09498,0011171700,5,20,12.5
61796,80035,2011/05/20 04:30:24,42.7622,9.8235,0.5,18.6,50,0.018461,0.072285,0011171700,3,20,12.5
61796,80035,2011/05/20 05:00:12,42.7626,9.8248,0.5,18.6,50,0.024876,0.059355,0011171700,3,17,12.5
61796,80035,2011/05/20 05:30:12,42.7626,9.8248,0.5,18.6,50,0,0,0011171700,1,17,12.5
61796,80035,2011/05/20 05:30:53,42.7631,9.8273,0.5,18.6,50,1.35604,4.97781,0014471700,1,19,12.5
61796,80035,2011/05/20 06:00:11,42.7635,9.8290,0.5,18.68,50,0.0253,0.078942,0011171700,3,20,12.5
61796,80035,2011/05/20 06:30:18,42.7639,9.8308,0.5,18.68,50,0.024614,0.081319,0011171700,3,20,12.5
61796,80035,2011/05/20 07:00:18,42.7642,9.8328,0.5,18.68,50,0.018532,0.090705,0011171700,3,20,12.4
61796,80035,2011/05/20 07:30:19,42.7644,9.8349,0.5,18.76,50,0.012348,0.095187,0011171700,4,20,12.4
61796,80035,2011/05/20 08:00:12,42.7648,9.8370,0.5,18.76,50,0.024806,0.095611,0011171700,4,17,12.5
61796,80035,2011/05/20 08:30:12,42.7653,9.8390,0.5,18.84,50,0.030887,0.090703,0011171700,4,19,12.5
61796,80035,2011/05/20 09:00:18,42.7657,9.8412,0.5,18.84,50,0.024628,0.099442,0011171700,6,19,12.5
61796,80035,2011/05/20 09:30:10,42.7662,9.8437,0.5,19.08,50,0.031025,0.113884,0011171700,6,19,12.5
61796,80035,2011/05/20 10:00:10,42.7671,9.8457,0.5,19.24,50,0.055597,0.090701,0011171700,1,20,12.5
61796,80035,2011/05/20 10:30:12,42.7675,9.8483,0.5,19.4,50,0.024683,0.117779,0011171700,1,20,12.5
61796,80035,2011/05/20 11:00:17,42.7682,9.8507,0.5,19.48,50,0.043123,0.108538,0011171700,1,15,12.4
61796,80035,2011/05/20 11:30:35,42.7688,9.8532,0.5,19.48,50,0.036698,0.11225,0011171700,3,15,12.4
61796,80035,2011/05/20 12:00:11,42.7695,9.8556,0.5,19.48,50,0.043827,0.110308,0011171700,3,15,12.5
61796,80035,2011/05/20 12:30:11,42.7702,9.8581,0.5,19.72,50,0.043242,0.113371,0011171700,3,15,12.5
61796,80035,2011/05/20 13:00:12,42.7709,9.8605,0.5,19.72,50,0.043218,0.108774,0011171700,3,15,12.5
61796,80035,2011/05/20 13:30:12,42.7715,9.8631,0.5,19.96,50,0.037065,0.117903,0011171700,4,15,12.5
61796,80035,2011/05/20 14:00:17,42.7720,9.8655,0.5,20.04,50,0.030802,0.108531,0011171700,4,17,12.5
61796,80035,2011/05/20 14:30:11,42.7724,9.8677,0.5,20.04,50,0.024793,0.100096,0011171700,3,17,12.5
61796,80035,2011/05/20 15:00:12,42.7728,9.8695,0.5,20.04,50,0.024696,0.081578,0011171700,3,15,12.5
61796,80035,2011/05/20 15:30:35,42.7729,9.8712,0.5,20.04,50,0.0061,0.076116,0011171700,3,15,12.5
61796,80035,2011/05/20 16:00:11,42.7728,9.8731,0.5,19.88,50,-0.006261,0.087322,0011171700,1,17,12.5
61796,80035,2011/05/20 16:30:18,42.7731,9.8747,0.5,19.88,50,0.018461,0.072272,0011171700,1,17,12.5
61796,80035,2011/05/20 17:00:34,42.7735,9.8765,0.5,19.72,50,0.024492,0.080903,0011171700,1,17,12.5
61796,80035,2011/05/20 17:30:11,42.7736,9.8784,0.5,19.48,50,0.006257,0.087272,0011171700,1,17,12.5
61796,80035,2011/05/20 18:00:11,42.7736,9.8799,0.5,19.32,50,0,0.068018,0011171700,1,19,12.4
61796,80035,2011/05/20 18:30:11,42.7734,9.8811,0.5,19.24,50,-0.012355,0.054415,0011171700,1,19,12.4
61796,80035,2011/05/20 19:00:18,42.7733,9.8822,0.5,19.16,50,-0.006154,0.049687,0011171700,3,20,12.5
61796,80035,2011/05/20 19:30:11,42.7733,9.8837,0.5,19.24,50,0,0.068284,0011171700,3,20,12.5
61796,80035,2011/05/20 20:00:34,42.7729,9.8848,0.5,19.24,50,-0.024398,0.049251,0011171700,4,22,12.5
61796,80035,2011/05/20 20:30:11,42.7727,9.8859,0.5,19.24,50,-0.012515,0.050526,0011171700,4,20,12.5
61796,80035,2011/05/20 21:00:11,42.7727,9.8859,0.5,19.24,50,0,0,0011171700,1,20,12.5
61796,80035,2011/05/20 21:00:52,42.7725,9.8869,0.5,19.24,50,-0.542414,1.99081,0014471700,1,19,12.4
61796,80035,2011/05/20 21:30:18,42.7725,9.8876,0.5,19.24,50,0,0.032354,0011171700,1,20,12.4
61796,80035,2011/05/20 21:30:52,42.7725,9.8876,0.5,19.24,50,0,0,0011171700,3,20,12.4
61796,80035,2011/05/20 22:00:18,42.7724,9.8888,0.5,19.24,50,-0.006296,0.055463,0011171700,3,22,12.4
61796,80035,2011/05/20 22:30:11,42.7726,9.8897,0.5,19.24,50,0.012403,0.040971,0011171700,4,22,12.4
61796,80035,2011/05/20 23:00:17,42.7729,9.8908,0.5,19.24,50,0.018471,0.049715,0011171700,4,20,12.4
61796,80035,2011/05/20 23:30:35,42.7735,9.8921,0.5,19.24,50,0.036698,0.058366,0011171700,1,20,12.4
61796,80035,2011/05/21 00:00:11,42.7741,9.8939,0.5,19.24,50,0.037566,0.082725,0011171700,1,19,12.5
61796,80035,2011/05/21 00:30:11,42.7746,9.8957,0.5,19.24,50,0.030887,0.081621,0011171700,3,19,12.5
61796,80035,2011/05/21 01:00:11,42.7753,9.8970,0.5,19.24,50,0.043242,0.058948,0011171700,4,17,12.4
61796,80035,2011/05/21 01:30:11,42.7759,9.8981,0.5,19.16,50,0.037065,0.049878,0011171700,4,17,12.4
61796,80035,2011/05/21 02:00:12,42.7764,9.8989,0.5,19.16,50,0.03087,0.036255,0011171700,3,15,12.5
61796,80035,2011/05/21 02:30:13,42.7767,9.9000,0.5,19.16,50,0.018522,0.04985,0011171700,3,15,12.5
61796,80035,2011/05/21 03:00:11,42.7771,9.9010,0.5,19.16,50,0.024737,0.045393,0011171700,1,19,12.5
61796,80035,2011/05/21 03:30:11,42.7777,9.9013,0.5,19.16,50,0.037065,0.013603,0011171700,3,19,12.5
61796,80035,2011/05/21 04:00:11,42.7777,9.9013,0.5,19.16,50,0,0,0011171700,1,19,12.5
61796,80035,2011/05/21 04:00:58,42.7776,9.9026,0.5,19.16,50,-0.236585,2.25748,0014471700,3,14,12.5
61796,80035,2011/05/21 04:30:11,42.7779,9.9029,0.5,19.16,50,0.019029,0.013967,0011171700,4,14,12.5
61796,80035,2011/05/21 04:30:58,42.7776,9.9026,0.5,19.16,50,-0.709755,-0.520956,0011171700,1,14,12.5
61796,80035,2011/05/21 05:00:11,42.7783,9.9035,0.5,19.16,50,0.044402,0.041902,0011171700,4,12,12.5
61796,80035,2011/05/21 05:30:12,42.7786,9.9043,0.5,19.16,50,0.018522,0.036253,0011171700,4,12,12.5
61796,80035,2011/05/21 06:00:11,42.7791,9.9053,0.5,19.16,50,0.030905,0.045367,0011171700,4,14,12.5
61796,80035,2011/05/21 06:30:11,42.7796,9.9064,0.5,19.24,50,0.030887,0.049875,0011171700,4,14,12.5
61796,80035,2011/05/21 07:00:11,42.7800,9.9076,0.5,19.32,50,0.02471,0.054409,0011171700,4,12,12.4
61796,80035,2011/05/21 07:30:11,42.7802,9.9087,0.5,19.32,50,0.012355,0.049875,0011171700,4,12,12.4
61796,80035,2011/05/21 08:00:35,42.7803,9.9094,0.5,19.4,50,0.006096,0.031321,0011171700,1,12,12.5
61796,80035,2011/05/21 08:30:12,42.7804,9.9098,0.5,19.4,50,0.006257,0.018371,0011171700,1,12,12.5
61796,80035,2011/05/21 09:00:11,42.7804,9.9103,0.5,19.48,50,0,0.022683,0011171700,1,14,12.5
61796,80035,2011/05/21 09:30:12,42.7804,9.9109,0.5,19.56,50,0,0.027189,0011171700,3,15,12.5
61796,80035,2011/05/21 10:00:11,42.7804,9.9116,0.5,19.88,50,0,0.031756,0011171700,3,17,12.5
61796,80035,2011/05/21 10:30:11,42.7805,9.9125,0.5,20.04,50,0.006177,0.040806,0011171700,3,17,12.5
61796,80035,2011/05/21 11:00:17,42.7807,9.9134,0.5,20.28,50,0.012314,0.040671,0011171700,3,14,12.4
61796,80035,2011/05/21 11:30:34,42.7809,9.9142,0.5,20.36,50,0.012239,0.035933,0011171700,3,14,12.4
61796,80035,2011/05/21 12:00:10,42.7812,9.9148,0.5,20.44,50,0.018783,0.027572,0011171700,3,12,12.4
61796,80035,2011/05/21 12:30:10,42.7817,9.9155,0.5,20.36,50,0.030887,0.031738,0011171700,4,12,12.4
61796,80035,2011/05/21 13:00:11,42.7819,9.9163,0.5,20.52,50,0.012348,0.036251,0011171700,4,12,12.4
61796,80035,2011/05/21 13:30:33,42.7824,9.9166,0.5,20.52,50,0.030515,0.013438,0011171700,5,14,12.4
61796,80035,2011/05/21 14:00:10,42.7827,9.9169,0.5,20.52,50,0.018772,0.013778,0011171700,5,20,12.4
61796,80035,2011/05/21 14:30:12,42.7832,9.9172,0.5,20.44,50,0.030853,0.013586,0011171700,4,20,12.4
61796,80035,2011/05/21 15:00:10,42.7834,9.9177,0.5,20.36,50,0.012369,0.022694,0011171700,4,15,12.5
61796,80035,2011/05/21 15:30:17,42.7837,9.9175,0.5,20.36,50,0.018461,-0.009033,0011171700,1,15,12.5
61796,80035,2011/05/21 16:00:35,42.7837,9.9178,0.5,20.44,50,0,0.013467,0011171700,1,17,12.4
61796,80035,2011/05/21 16:30:12,42.7838,9.9179,0.5,20.44,50,0.006257,0.004592,0011171700,1,17,12.4
61796,80035,2011/05/21 17:00:12,42.7839,9.9178,0.5,20.44,50,0.006177,-0.004534,0011171700,1,17,12.4
61796,80035,2011/05/21 17:30:11,42.7840,9.9173,0.5,20.44,50,0.006181,-0.022682,0011171700,1,17,12.4
61796,80035,2011/05/21 18:00:11,42.7840,9.9173,0.5,20.44,50,0,0,0011171700,1,17,12.4
61796,80035,2011/05/21 18:30:11,42.7844,9.9168,0.5,20.36,50,0.02471,-0.022669,0011171700,4,19,12.4
61796,80035,2011/05/21 19:00:18,42.7848,9.9164,0.5,20.36,50,0.024614,-0.018065,0011171700,4,20,12.4
61796,80035,2011/05/21 19:30:24,42.7848,9.9164,0.5,20.36,50,0,0,0011171700,3,20,12.4
61796,80035,2011/05/21 20:00:34,42.7854,9.9167,0.5,20.28,50,0.03686,0.013526,0011171700,1,20,12.4
61796,80035,2011/05/21 20:30:18,42.7858,9.9168,0.5,20.2,50,0.024932,0.004574,0011171700,1,20,12.4
61796,80035,2011/05/21 21:00:18,42.7858,9.9168,0.5,20.2,50,0,0,0011171700,1,20,12.4
61796,80035,2011/05/21 21:00:53,42.7860,9.9170,0.5,20.2,50,0.6354,0.466318,0011171700,1,17,12.4
61796,80035,2011/05/21 21:30:11,42.7864,9.9168,0.5,20.2,50,0.0253,-0.009284,0011171700,1,17,12.4
61796,80035,2011/05/21 21:30:53,42.7860,9.9170,0.5,20.2,50,-1.059,0.388596,0011171700,3,17,12.4
61796,80035,2011/05/21 22:00:11,42.7864,9.9168,0.5,20.2,50,0.0253,-0.009284,0011171700,3,17,12.4
61796,80035,2011/05/21 22:30:18,42.7868,9.9167,0.5,20.12,50,0.024614,-0.004516,0011171700,3,17,12.4
61796,80035,2011/05/21 23:00:11,42.7873,9.9165,0.5,20.2,50,0.031008,-0.009103,0011171700,3,17,12.4
61796,80035,2011/05/21 23:30:35,42.7884,9.9159,0.5,20.04,50,0.067058,-0.026843,0011171700,3,19,12.4
61796,80035,2011/05/22 00:00:11,42.7888,9.9156,0.5,20.04,50,0.025044,-0.013784,0011171700,3,19,12.4
61796,80035,2011/05/22 00:30:11,42.7891,9.9150,0.5,20.04,50,0.018532,-0.027201,0011171700,4,19,12.4
61796,80035,2011/05/22 01:00:11,42.7893,9.9145,0.5,20.04,50,0.012355,-0.022667,0011171700,4,22,12.3
61796,80035,2011/05/22 01:30:11,42.7894,9.9144,0.5,20.04,50,0.006177,-0.004533,0011171700,6,22,12.3
61796,80035,2011/05/22 02:00:13,42.7895,9.9141,0.5,19.96,50,0.006171,-0.013585,0011171700,6,19,12.4
61796,80035,2011/05/22 02:30:11,42.7895,9.9137,0.5,20.04,50,0,-0.018154,0011171700,3,19,12.4
61796,80035,2011/05/22 03:00:11,42.7892,9.9137,0.5,19.96,50,-0.018532,0,0011171700,4,20,12.4
61796,80035,2011/05/22 03:30:35,42.7893,9.9121,0.5,19.88,50,0.006096,-0.07158,0011171700,4,20,12.4
61796,80035,2011/05/22 04:00:11,42.7891,9.9116,0.5,19.88,50,-0.012522,-0.022973,0011171700,3,20,12.4
61796,80035,2011/05/22 04:30:11,42.7888,9.9107,0.5,19.96,50,-0.018532,-0.040801,0011171700,3,20,12.4
61796,80035,2011/05/22 05:00:11,42.7888,9.9107,0.5,19.96,50,0,0,0011171700,1,20,12.4
61796,80035,2011/05/22 05:30:11,42.7881,9.9097,0.5,19.88,50,-0.043242,-0.045335,0011171700,1,19,12.4
61796,80035,2011/05/22 06:00:11,42.7875,9.9090,0.5,19.96,50,-0.037065,-0.031735,0011171700,3,20,12.4
61796,80035,2011/05/22 06:30:11,42.7868,9.9080,0.5,19.96,50,-0.043242,-0.045336,0011171700,3,19,12.4
61796,80035,2011/05/22 07:00:17,42.7863,9.9077,0.5,19.96,50,-0.030785,-0.013556,0011171700,1,14,12.4
61796,80035,2011/05/22 07:30:17,42.7858,9.9075,0.5,20.28,50,-0.030887,-0.009067,0011171700,3,14,12.4
61796,80035,2011/05/22 08:00:11,42.7855,9.9074,0.5,20.44,50,-0.018594,-0.004549,0011171700,3,14,12.4
61796,80035,2011/05/22 08:30:35,42.7848,9.9076,0.5,20.76,50,-0.042673,0.008948,0011171700,5,14,12.4
61796,80035,2011/05/22 09:00:11,42.7842,9.9076,0.5,21.08,50,-0.037566,0,0011171700,5,15,12.4
61796,80035,2011/05/22 09:30:12,42.7842,9.9076,0.5,21.08,50,0,0,0011171700,1,15,12.4
61796,80035,2011/05/22 10:00:11,42.7836,9.9075,0.5,21.56,50,-0.037086,-0.004536,0011171700,1,15,12.4
61796,80035,2011/05/22 10:30:12,42.7824,9.9074,0.5,21.24,50,-0.074089,-0.004531,0011171700,3,14,12.4
61796,80035,2011/05/22 11:00:12,42.7819,9.9068,0.5,21.32,50,-0.030887,-0.027204,0011171700,3,12,12.4